Das Wetter in  D-61279 Heinzenberg / Taunus





Wetter Minimum- & Maximum-Werte im Februar 2015

Standort: Heinzenberg / Taunus - Höhe 297 m         8 24' 1" Ost 50 21' 51" Nord
(   3-stündige Aktualisierung    letzte Aktualisierung um 19:04 am 28.02.2015  )


Messgrösse

Minimum

Maximum

Durchschnitt

Temperatur West /
Luftfeuchte West
Anklicken für Monats-Diagramm

-9,2 C

08:00
07.02.2015

46 %

16:46
08.02.2015

9,4 C

15:46
20.02.2015

92 %

00:28
10.02.2015

Temp

1,3 C

Feuchte

81 %

Temperatur Ost /
Luftfeuchte Ost
Anklicken für Monats-Diagramm

-9,1 C

08:05
07.02.2015

--

--
--

10,4 C

13:57
15.02.2015

--

--
--

1,4 C

--

Luftdruck Anklicken für Monats-Diagramm

987,2 hPa

02:39
01.02.2015

1041,7 hPa

07:39
18.02.2015

1017,8 hPa

Taupunkt

-12,0 C

08:00
07.02.2015

3,8 C

10:27
26.02.2015

-1,7 C

Windchill
( gefühlte Temperatur )

-20,4 C

02:14
06.02.2015

9,0 C

18:46
20.02.2015

-1,5 C

Windgeschwindigkeit /
Windrichtung
Anklicken für Monats-Diagramm

---

45,0 km/h / NO

02:14
06.02.2015

7,8 km/h
W-SW

Helligkeit /
Sonnenschein
Anklicken für Monats-Diagramm
Anklicken für Monats-Diagramm

Sonnenschein:

62:31 Stunden

Max: 8:10 Std am
15.02.2015

67,0 klux

12:07
26.02.2015

13,1 klux

Solarstrahlung Anklicken für Monats-Diagramm

---

458 W/m

12:07
26.02.2015

99 W/m

Regenmenge
    Februar 2015
Anklicken für Monats-Diagramm

Insgesamt 23,0 l/m

in 53:36 Stunden
an 14 Tagen

11,1 l/m

07:13
27.02.2015

Gesamtmenge

23,0 l/m

Regen-Tage
    Februar 2015
Anklicken für Monats-Diagramm

>   0 mm/Tag

>   2 mm/Tag

>   5 mm/Tag

> 10 mm/Tag

> 20 mm/Tag

14 Tage     
2 Tage     
2 Tage     
  1 Tag     
0 Tage     

Eisige Tage Februar 2015 / 2014

Tmin ≤ -10C     

0 Tage

/

0 Tage

Eistage Februar 2015 / 2014

Tmax <     0C     

0 Tage

/

0 Tage

Frosttage Februar 2015 / 2014

Tmin ≤     0C     

21 Tage

/

9 Tage

Kalte Tage Februar 2015 / 2014

Tmax <   10C     

28 Tage

/

21 Tage

Warme Tage Februar 2015 / 2014

Tmax ≥   20C     

0 Tage

/

0 Tage

Sommertage Februar 2015 / 2014

Tmax ≥   25C     

0 Tage

/

0 Tage

Heisse Tage Februar 2015 / 2014

Tmax ≥   30C     

0 Tage

/

0 Tage


Monatsdiagramm Februar 2015

Die Kurven zeigen den Durchschnittswert des jeweiligen Tages an


Wetter-Monatsübersicht Februar 2015
Datum
  Temperatur
   Luftdruck
   Wind
  Regen
   Luftfeuchte
   Helligkeit

Sonnen-
schein


Temp.

Min.
Temp.

Max.
Temp.


Luftdruck

Min.
Luftdruck

Max.
Luftdruck

-Geschw.
Haupt-Richtg.

Max.
Wind

Menge /
Dauer


Feuchte

Min.
Feuchte

Max.
Feuchte


Helligkeit

Max.
Helligkeit

1.
Februar
-0,2 C-2,4 C
00:04
2,0 C
13:09
991,1 hPa987,2 hPa
02:39
996,3 hPa
23:30
3,0 km/h
W-SW
21,8 km/h
14:34  
1,7 l/m
3:17 Stunden
88 %82 %
13:14
91 %
10:49
12,1 klux40,9 klux
12:19
1:40 Std 
2.
Februar
0,3 C-0,7 C
05:05
2,3 C
14:10
1000,4 hPa996,3 hPa
00:00
1002,6 hPa
22:41
16,6 km/h
W
31,2 km/h
14:20  
---
1:55 Stunden
88 %77 %
14:20
91 %
01:40
9,7 klux46,5 klux
14:10
25 Min 
3.
Februar
-0,4 C-3,7 C
23:52
1,9 C
13:26
1004,6 hPa1002,6 hPa
00:01
1008,3 hPa
23:52
3,6 km/h
W
20,0 km/h
00:01  
---
84 %78 %
16:31
87 %
00:01
9,4 klux31,0 klux
12:46
15 Min 
4.
Februar
-2,2 C-6,1 C
23:58
2,5 C
16:42
1013,7 hPa1008,3 hPa
00:02
1020,0 hPa
23:58
4,0 km/h
SO
17,7 km/h
12:57  
---
78 %63 %
16:47
88 %
02:52
17,1 klux53,1 klux
12:37
4:10 Std 
5.
Februar
-3,6 C-7,8 C
03:28
0,3 C
14:43
1021,1 hPa1020,0 hPa
07:33
1023,6 hPa
21:58
8,9 km/h
NO
28,9 km/h
14:08  
---
78 %68 %
14:08
85 %
06:53
13,6 klux46,3 klux
12:08
1:30 Std 
6.
Februar
-1,7 C-4,7 C
23:55
1,8 C
14:39
1025,7 hPa1023,6 hPa
00:24
1030,2 hPa
23:55
17,5 km/h
NO
45,0 km/h
02:14  
---
69 %57 %
16:39
74 %
04:19
21,1 klux39,2 klux
12:49
7:16 Std 
7.
Februar
-2,4 C-9,2 C
08:00
4,9 C
16:05
1030,0 hPa1026,3 hPa
23:01
1032,6 hPa
10:00
4,1 km/h
W-NW
17,1 km/h
23:11  
---
45 Minuten
71 %50 %
15:50
86 %
23:51
23,3 klux41,7 klux
13:00
8:00 Std 
8.
Februar
1,6 C-1,8 C
20:36
4,7 C
15:21
1027,9 hPa1024,1 hPa
03:11
1032,9 hPa
20:36
11,4 km/h
N
33,5 km/h
11:21  
0,3 l/m
3:10 Stunden
70 %46 %
16:46
88 %
00:16
21,3 klux50,2 klux
12:41
5:40 Std 
9.
Februar
2,3 C0,1 C
00:02
3,2 C
14:37
1029,1 hPa1028,1 hPa
14:37
1031,6 hPa
00:02
14,6 km/h
W-NW
28,8 km/h
09:27  
0,2 l/m
6:17 Stunden
87 %71 %
00:02
91 %
16:22
3,4 klux16,5 klux
11:07
--- 
10.
Februar
3,5 C2,7 C
21:58
4,8 C
14:08
1030,7 hPa1030,0 hPa
14:43
1031,3 hPa
21:58
3,7 km/h
W-NW
14,5 km/h
01:53  
0,2 l/m
5:00 Stunden
88 %82 %
18:18
92 %
00:28
5,3 klux12,6 klux
11:33
--- 
11.
Februar
1,8 C0,4 C
23:55
3,6 C
15:59
1027,6 hPa1025,3 hPa
20:04
1030,2 hPa
00:03
9,5 km/h
O-SO
19,5 km/h
17:04  
---
1:10 Stunden
83 %78 %
16:14
86 %
23:30
7,3 klux35,6 klux
15:29
25 Min 
12.
Februar
0,7 C-0,4 C
07:50
3,1 C
15:40
1024,1 hPa1022,9 hPa
15:40
1025,5 hPa
09:55
4,5 km/h
SO
14,5 km/h
11:45  
---
86 %80 %
15:45
88 %
03:40
8,2 klux30,5 klux
15:30
15 Min 
13.
Februar
0,5 C-1,0 C
06:00
3,8 C
16:10
1019,2 hPa1015,0 hPa
21:55
1023,4 hPa
01:51
6,6 km/h
O-SO
19,8 km/h
19:10  
---
85 %77 %
16:40
89 %
05:30
12,1 klux31,5 klux
14:15
50 Min 
14.
Februar
1,6 C-2,8 C
05:21
7,6 C
14:11
1012,2 hPa1010,0 hPa
15:16
1015,1 hPa
00:21
4,9 km/h
O-SO
20,8 km/h
13:56  
---
80 %69 %
14:21
88 %
07:16
17,7 klux48,2 klux
10:51
3:50 Std 
15.
Februar
0,8 C-3,8 C
08:02
7,5 C
16:17
1014,2 hPa1012,1 hPa
00:02
1018,5 hPa
23:48
3,5 km/h
SO
21,5 km/h
10:57  
---
77 %62 %
13:47
88 %
09:32
24,2 klux42,7 klux
12:47
8:10 Std 
16.
Februar
0,6 C-2,6 C
00:18
3,8 C
13:08
1020,6 hPa1018,5 hPa
00:03
1023,2 hPa
22:29
3,5 km/h
O-SO
16,8 km/h
18:23  
---
82 %76 %
14:33
87 %
09:38
7,9 klux18,7 klux
11:48
--- 
17.
Februar
1,6 C-0,6 C
07:44
3,6 C
14:29
1032,1 hPa1023,2 hPa
00:04
1040,7 hPa
23:19
4,9 km/h
W-NW
14,7 km/h
07:04  
---
83 %79 %
14:34
87 %
09:24
6,9 klux24,3 klux
14:04
--- 
18.
Februar
2,5 C-2,6 C
23:50
5,6 C
14:14
1039,8 hPa1037,2 hPa
23:35
1041,7 hPa
07:39
2,2 km/h
SO
15,1 km/h
14:59  
---
81 %70 %
17:04
88 %
09:34
8,8 klux25,1 klux
11:19
--- 
19.
Februar
-0,6 C-3,0 C
00:45
1,2 C
12:55
1031,6 hPa1025,5 hPa
22:36
1037,2 hPa
00:45
9,8 km/h
W-SW
27,0 km/h
14:50  
---
83 %79 %
13:55
87 %
03:45
8,6 klux30,6 klux
13:50
--- 
20.
Februar
5,5 C-1,4 C
00:01
9,4 C
15:46
1013,9 hPa1002,6 hPa
23:22
1025,6 hPa
00:01
15,3 km/h
W-SW
33,9 km/h
23:02  
---
72 %59 %
20:51
84 %
00:11
15,4 klux53,3 klux
12:51
1:55 Std 
21.
Februar
4,1 C-0,6 C
23:58
8,4 C
00:02
1000,4 hPa996,7 hPa
06:27
1004,8 hPa
23:58
14,8 km/h
W-SW
42,5 km/h
03:37  
0,3 l/m
2:55 Stunden
78 %59 %
00:52
86 %
09:37
8,7 klux34,5 klux
12:47
--- 
22.
Februar
1,9 C-1,2 C
02:13
6,9 C
16:03
1009,3 hPa1004,8 hPa
00:03
1011,8 hPa
09:43
4,7 km/h
W
20,6 km/h
23:39  
0,2 l/m
45 Minuten
78 %60 %
16:03
89 %
07:38
16,6 klux59,2 klux
12:53
2:35 Std 
23.
Februar
1,9 C0,5 C
06:54
3,2 C
20:19
1000,5 hPa997,2 hPa
14:09
1007,6 hPa
00:04
11,3 km/h
W-SW
31,4 km/h
02:29  
8,1 l/m
9:45 Stunden
84 %70 %
04:44
90 %
22:14
7,1 klux19,3 klux
14:04
--- 
24.
Februar
3,2 C0,3 C
23:56
5,7 C
12:50
1007,5 hPa1000,1 hPa
00:05
1015,0 hPa
23:56
14,1 km/h
W-SW
36,5 km/h
12:35  
0,2 l/m
1:15 Stunden
82 %71 %
12:30
88 %
00:00
13,2 klux56,3 klux
11:25
2:30 Std 
25.
Februar
3,1 C-0,6 C
01:11
8,0 C
13:06
1018,6 hPa1015,0 hPa
00:01
1020,9 hPa
22:47
5,3 km/h
W-SW
23,8 km/h
11:31  
0,6 l/m
2:11 Stunden
80 %61 %
13:51
90 %
06:56
21,3 klux60,5 klux
12:46
5:00 Std 
26.
Februar
4,7 C2,9 C
00:01
7,5 C
12:42
1018,3 hPa1011,4 hPa
23:52
1021,9 hPa
02:12
5,2 km/h
W-SW
24,8 km/h
11:52  
0,3 l/m
1:21 Stunden
80 %70 %
17:37
88 %
09:37
17,2 klux67,0 klux
12:07
1:55 Std 
27.
Februar
3,5 C1,9 C
23:59
6,0 C
01:23
1014,0 hPa1009,3 hPa
03:08
1022,1 hPa
23:59
6,2 km/h
NW
26,4 km/h
04:08  
11,1 l/m
13:50 Stunden
85 %66 %
01:48
89 %
11:08
5,2 klux19,1 klux
12:43
--- 
28.
Februar
2,1 C-2,5 C
07:14
7,7 C
15:54
1019,8 hPa1013,6 hPa
23:40
1023,6 hPa
08:44
6,2 km/h
W-SW
28,0 km/h
14:49  
---
76 %54 %
17:19
90 %
08:59
24,1 klux58,9 klux
13:34
6:10 Std 



Februar
2015

Temperatur

  

Luftdruck

  

Wind

  

Regen

  

Luftfeuchte

  

Helligkeit

Sonnen-
schein

Min

Max

Min

Max

Max

Max

Min

Max

Max

Max

1,3 C

-9,2 C

08:00 Uhr
07.02.2015

9,4 C

15:46 Uhr
20.02.2015

1017,8 hPa

987,2 hPa

02:39 Uhr
01.02.2015

1041,7 hPa

07:39 Uhr
18.02.2015

7,8 km/h

W-SW

45,0 km/h

02:14 Uhr
06.02.2015

11,1 l/m

13:50 Stunden
27.02.2015

81 %

46 %

16:46 Uhr
08.02.2015

92 %

00:28 Uhr
10.02.2015

13,1 klux

67,0 klux

12:07 Uhr
26.02.2015

8:10 Std

am
15.02.2015

Gesamt

Gesamt

23,0 l/m

14 Tage
53:36 h

62:31 Std


Wetter-Diagramme Februar 2015     Heinzenberg / Taunus   
TemperaturLuftfeuchte
SolarstrahlungLuftdruck
HelligkeitSonnenschein
RegenmengeRegendauer
Wind-GeschwindigkeitWind-Richtung